Location: Gorze? G�rny
(49.8500°N, 19.5000°E)
Time: 03:44:24
(UTC+00:00)

Cosmos 1943 Rocket - Pass Details

Date: 13 May 2021
Orbit: 814 x 842 km, 71.0° (Epoch: 23 June)

Event Time Altitude Azimuth Distance (km) Brightness Sun altitude
Exits shadow 19:53:19 16° 124° (ESE) 2,057 3.6 -12.5°
Maximum altitude 19:55:10 19° 100° (E) 1,913 3.6 -12.6°
Drops below altitude 10° 19:58:54 10° 58° (ENE) 2,445 4.5 -13.0°
Sets 20:02:01 0° 40° (NE) 3,378 5.5 -13.3°
